Location: City of Moscow
(46.7306°N, 116.9989°W)
Time: 17:39:08
(UTC+00:00)

USA 234 - Visible Passes

Search period start: 07 March 2026 00:00
Search period end: 17 March 2026 00:00
Orbit: 1102 x 1106 km, 123.0° (Epoch: 4 January)

Date Brightness Start Highest point End Pass type
(mag) Time Alt. Az. Time Alt. Az. Time Alt. Az.
7 Mar 3.9 02:34:00 11° E 02:39:47 42° NNE 02:45:52 10° NW visible
7 Mar 3.1 04:21:21 66° ESE 04:22:23 83° NE 04:28:58 10° NW visible
7 Mar 5.0 06:08:41 24° W 06:08:41 24° W 06:11:38 10° WNW visible
8 Mar 3.5 03:36:44 32° E 03:39:44 56° NNE 03:46:07 10° NW visible
8 Mar 3.8 05:24:05 51° W 05:24:05 51° W 05:29:12 10° WNW visible
9 Mar 4.0 02:52:08 14° E 02:57:16 42° NNE 03:03:21 10° NW visible
9 Mar 3.1 04:39:28 79° E 04:39:52 83° NE 04:46:27 10° NW visible
9 Mar 5.2 06:26:48 20° W 06:26:48 20° W 06:29:07 10° WNW visible
10 Mar 4.2 02:09:02 10° ENE 02:14:55 37° N 02:20:48 10° WNW visible
10 Mar 3.5 03:54:50 38° E 03:57:13 56° NNE 04:03:36 10° NW visible
10 Mar 4.1 05:42:11 44° W 05:42:11 44° W 05:46:42 10° WNW visible
11 Mar 4.0 03:10:12 18° ENE 03:14:45 43° NNE 03:20:51 10° NW visible
11 Mar 3.2 04:57:32 82° N 04:57:32 82° N 05:03:56 10° NW visible
11 Mar 5.3 06:44:52 18° WNW 06:44:52 18° WNW 06:46:36 10° WNW visible
12 Mar 4.2 02:26:32 10° ENE 02:32:24 37° N 02:38:17 10° WNW visible
12 Mar 3.5 04:12:53 43° ENE 04:14:42 57° NNE 04:21:06 10° NW visible
12 Mar 4.3 06:00:13 38° WNW 06:00:13 38° WNW 06:04:11 10° WNW visible
13 Mar 4.0 03:28:13 21° ENE 03:32:14 43° NNE 03:38:20 10° NW visible
13 Mar 3.3 05:15:33 73° NW 05:15:33 73° NW 05:21:26 10° NW visible
13 Mar 5.4 07:02:53 15° WNW 07:02:53 15° WNW 07:04:05 10° WNW visible
14 Mar 4.2 02:44:00 10° ENE 02:49:53 37° N 02:55:46 10° WNW visible
14 Mar 3.5 04:30:53 49° ENE 04:32:11 57° NNE 04:38:35 10° NW visible
14 Mar 4.6 06:18:13 33° WNW 06:18:13 33° WNW 06:21:40 10° WNW visible
15 Mar 4.0 03:46:12 24° ENE 03:49:43 43° NNE 03:55:49 10° NW visible
15 Mar 3.5 05:33:32 63° NW 05:33:32 63° NW 05:38:55 10° NW visible
15 Mar 5.6 07:20:51 13° WNW 07:20:51 13° WNW 07:21:33 10° WNW visible
16 Mar 4.3 03:01:30 10° ENE 03:07:22 37° N 03:13:15 10° WNW visible
16 Mar 3.5 04:48:50 53° NE 04:49:41 57° NNE 04:56:04 10° NW visible
16 Mar 4.8 06:36:10 28° WNW 06:36:10 28° WNW 06:39:09 10° WNW visible
